Wind_Speed
14 21 19 18 16 15 16 18 19 20 16 14 12 9 8 12 8 10 10 10 10 12 13 11 8 10 10 10 10 9 12 11 10 10 11 14 13 12 14 13 15 17 20
13 20 19 17 20 20 20 21 22 23 18 15 12 9 8 10 9 10 10 11 9 9 11 12 11 11 11 10 9 8 10 11 10 7 7 11 14 13 13 13 16 19 21
17 20 21 19 19 21 22 24 24 22 18 16 14 10 11 8 11 12 12 12 10 10 10 13 11 11 11 11 10 10 9 11 10 9 6 7 13 13 13 13 16 18 20
12 16 21 21 20 22 24 26 25 22 20 17 17 15 11 10 11 12 13 12 11 12 8 10 12 11 11 12 10 9 10 9 11 10 8 9 13 13 13 13 14 14 19
18 18 21 21 24 21 23 27 27 24 21 21 19 16 12 11 11 13 14 13 12 11 10 8 8 9 7 8 10 9 11 8 10 12 10 12 14 13 12 11 11 10 17
21 20 24 22 20 21 21 25 26 23 21 20 18 16 15 14 13 14 14 13 12 11 9 7 6 8 7 9 10 11 11 9 10 14 15 13 14 12 10 10 9 9 16
20 19 20 19 18 18 18 23 26 23 21 20 19 17 17 15 14 13 14 14 14 12 9 7 7 7 8 7 9 9 12 11 11 15 19 17 15 14 12 11 10 14 16
25 17 18 20 21 22 22 21 24 27 24 22 22 21 18 17 15 15 15 13 13 13 11 9 8 10 9 9 9 8 10 12 12 14 15 17 17 15 14 13 12 16 17
25 22 19 18 21 24 26 24 25 28 28 24 23 23 20 18 18 18 16 13 11 11 12 12 12 10 9 9 9 8 7 9 12 14 13 11 10 12 13 11 13 15 16
24 23 23 17 17 24 28 25 25 26 29 30 26 24 24 22 21 20 18 16 15 13 11 12 12 11 9 7 7 7 6 6 9 12 14 14 13 12 12 11 12 14 14
20 22 31 28 25 23 23 25 26 25 24 27 30 27 25 25 23 20 18 16 15 13 14 13 11 10 11 8 5 5 4 4 4 8 13 13 12 12 13 13 13 14 14
28 27 23 30 28 29 27 23 23 28 28 28 30 31 30 28 27 24 22 19 17 16 16 14 13 12 11 9 7 4 3 3 3 5 8 13 14 14 13 13 12 12 12
35 36 31 32 33 33 35 29 27 27 33 35 33 31 32 32 30 28 27 24 22 20 18 18 17 16 13 11 9 6 4 3 4 5 7 9 13 15 15 15 15 14 13
39 37 34 34 35 38 40 36 32 30 30 34 38 35 33 33 34 32 31 29 26 25 23 22 21 19 17 15 12 10 9 7 6 7 8 10 11 14 16 17 17 17 17
43 41 39 40 39 39 43 40 41 38 36 33 34 38 39 37 36 37 35 33 31 28 26 25 25 23 21 19 17 16 14 12 9 9 9 12 13 14 17 18 19 20 21
49 47 46 42 42 40 42 47 45 41 36 37 34 35 43 43 41 39 39 38 35 33 31 28 27 26 24 23 21 20 20 18 14 12 11 12 13 15 17 20 22 22 23
55 51 51 46 50 39 39 48 43 45 42 41 39 37 36 43 44 43 43 41 38 36 33 31 29 26 25 25 24 24 22 20 19 16 14 14 14 16 18 20 21 23 25
57 55 54 50 44 25 23 36 40 48 47 44 43 41 37 36 43 45 44 43 42 39 37 35 33 31 28 27 26 26 24 22 22 20 18 18 17 17 18 20 21 22 24
59 60 57 52 48 39 33 35 33 46 44 43 44 45 41 38 39 40 42 44 45 43 39 39 38 34 32 31 29 28 25 24 24 24 24 22 21 21 20 19 20 23 24
62 61 62 59 57 51 40 41 36 40 54 53 45 43 44 41 39 38 37 40 46 46 45 43 40 37 37 36 34 33 30 27 26 26 26 26 25 27 26 23 23 22 26
61 65 66 65 63 58 49 51 43 40 48 50 46 47 44 44 40 40 40 39 42 50 49 47 44 41 39 39 37 36 32 29 28 28 28 28 30 31 32 29 25 25 30
71 67 68 69 64 61 54 52 48 46 45 47 47 51 49 48 46 43 42 41 41 44 51 51 47 43 40 39 38 37 34 33 31 30 32 31 33 35 36 35 30 29 32
77 79 70 72 70 62 57 56 54 57 39 36 36 47 52 50 43 41 41 41 42 41 47 50 45 42 42 41 40 40 39 39 36 35 36 38 38 38 37 37 36 34 33
80 83 83 77 75 72 66 64 64 60 57 46 41 39 41 52 55 45 46 43 43 39 40 45 43 43 44 43 42 42 43 44 42 40 41 42 43 41 40 40 40 38 37
83 83 91 87 86 75 76 76 75 66 59 55 48 44 55 51 54 54 50 45 40 38 37 40 42 42 43 42 42 43 43 44 44 46 46 44 42 43 42 42 43 43 41
85 86 85 93 86 82 70 78 75 69 61 56 52 50 55 60 68 67 55 48 42 37 34 37 39 39 43 43 43 42 41 43 46 46 42 39 37 37 40 43 44 44 42
Wind_Direction
201 184 190 179 165 171 175 172 172 161 168 161 160 156 140 125 138 137 132 119 113 126 128 133 117 123 124 130 126 139 130 123 123 117 107 107 109 100 100 103 101 107 110
201 187 191 174 172 180 178 174 169 164 166 164 158 160 153 131 138 132 131 135 117 124 133 126 123 119 118 120 131 142 136 135 140 129 102 100 120 113 108 105 107 113 113
201 189 187 185 179 179 179 173 174 171 167 164 152 153 144 153 149 139 139 137 139 130 132 124 122 117 117 120 126 124 124 129 134 131 117 102 122 124 118 118 118 119 118
191 191 197 180 184 185 184 178 176 176 171 170 161 168 166 163 150 138 142 146 142 128 121 117 119 121 127 128 124 122 125 133 131 126 130 127 132 134 129 133 125 123 123
191 190 194 202 192 181 185 190 180 173 173 175 177 169 163 158 158 142 146 142 136 127 126 130 128 116 110 117 122 129 122 130 132 135 131 140 133 131 136 135 123 125 131
198 186 198 199 201 192 192 197 185 177 176 180 176 174 164 169 164 151 151 145 135 133 131 136 127 114 107 102 116 122 126 129 140 139 134 142 133 129 132 136 129 128 134
204 192 201 203 201 200 203 197 189 183 190 189 180 178 173 172 169 162 159 160 147 147 140 144 130 108 98 101 109 117 121 130 143 146 144 147 142 135 138 147 147 140 149
190 198 198 199 192 197 203 199 191 188 193 197 188 183 182 173 166 172 171 175 163 159 148 153 140 122 110 103 103 114 125 137 142 148 155 161 157 154 154 160 154 149 155
178 230 208 203 194 197 204 195 191 194 195 198 197 188 188 184 180 182 182 185 191 185 156 159 155 138 122 109 104 108 114 132 148 155 155 160 162 167 162 171 162 160 165
196 189 193 187 212 202 206 204 197 197 198 204 205 201 193 196 197 191 190 191 197 193 178 173 168 156 143 132 119 115 119 133 150 163 167 171 169 171 170 171 173 170 167
185 200 207 218 204 208 204 207 205 204 208 211 213 211 207 204 209 205 204 199 200 198 195 187 184 183 166 161 147 133 127 139 159 169 178 186 184 182 183 182 181 175 174
185 198 205 191 197 200 202 195 202 213 207 211 215 215 213 213 212 213 213 210 208 204 204 201 197 204 195 187 177 170 174 177 200 190 200 192 194 199 199 194 192 192 194
200 203 203 202 204 209 207 204 205 206 209 210 211 214 216 214 215 217 219 215 213 214 211 209 213 215 214 210 195 195 203 217 239 241 223 222 211 205 209 208 205 207 213
206 214 211 208 215 214 212 207 206 210 221 219 211 209 214 214 214 215 221 223 219 218 217 217 221 223 229 227 222 215 225 234 241 245 242 233 229 225 219 216 217 218 219
207 219 216 211 214 220 216 220 215 222 220 225 225 213 210 213 213 216 216 220 223 224 226 223 225 228 230 233 232 234 234 238 247 252 251 245 242 237 231 231 229 226 229
215 222 222 220 216 217 221 220 215 215 221 224 225 223 218 211 213 215 217 217 218 222 227 230 228 231 234 235 234 234 238 238 240 253 258 259 252 245 243 240 238 236 238
221 224 223 225 225 219 218 209 213 209 214 217 219 220 222 219 216 217 219 219 218 219 222 229 234 235 233 235 237 238 236 239 241 245 254 261 259 253 247 248 251 246 244
220 226 227 226 230 206 219 214 219 204 207 215 217 220 217 218 219 220 222 223 222 221 221 222 227 233 237 234 235 238 239 239 242 246 248 256 260 258 255 253 254 257 254
221 219 224 220 221 219 214 213 219 208 215 213 216 221 217 215 219 219 222 224 226 224 223 222 223 226 231 235 237 239 240 241 242 244 251 253 260 266 266 264 259 261 263
223 219 221 225 222 220 212 213 221 225 218 214 214 223 221 218 221 218 219 226 227 226 224 223 223 224 227 232 235 239 239 240 244 245 247 252 256 260 265 268 271 271 265
216 220 223 224 224 225 222 220 225 228 216 210 218 218 225 222 223 224 225 225 226 228 227 225 225 226 228 231 236 241 242 242 241 245 248 251 253 257 262 264 268 272 273
218 220 214 218 218 224 216 221 225 216 222 223 228 222 223 226 229 230 230 228 229 230 229 230 227 228 230 233 237 243 247 248 245 244 247 249 253 255 257 262 263 264 269
216 222 216 214 210 214 224 226 224 216 225 225 235 228 221 225 225 230 233 232 232 229 228 230 229 229 231 234 235 240 243 246 244 244 247 250 253 255 258 260 261 261 266
221 217 223 209 214 210 217 227 226 222 225 224 235 230 237 227 223 245 227 232 231 232 228 227 227 227 230 233 236 239 241 245 246 246 247 248 250 254 258 262 263 262 262
227 224 219 221 227 220 219 223 221 224 232 232 227 233 234 240 236 231 222 224 226 227 224 224 225 228 233 234 234 237 241 245 248 247 249 252 253 254 256 258 260 263 263
231 228 226 220 226 229 218 217 221 228 233 228 225 248 249 244 235 225 222 219 219 221 220 221 224 227 231 237 239 241 244 249 250 252 252 256 259 258 256 256 258 261 264
Height
5893 5897 5897 5900 5901 5904 5907 5908 5912 5916 5919 5920 5922 5923 5924 5925 5930 5931 5933 5934 5935 5937 5939 5939 5940 5940 5940 5941 5941 5943 5943 5945 5947 5947 5947 5947 5948 5948 5948 5949 5948 5948 5948
5892 5896 5896 5898 5900 5904 5908 5909 5912 5916 5918 5920 5922 5925 5926 5926 5931 5932 5933 5935 5936 5937 5940 5941 5942 5942 5942 5943 5945 5946 5946 5947 5948 5949 5948 5949 5950 5950 5951 5952 5952 5952 5952
5890 5893 5895 5898 5900 5902 5906 5909 5911 5914 5917 5921 5922 5926 5926 5929 5932 5933 5933 5935 5938 5940 5942 5942 5943 5943 5944 5946 5947 5947 5948 5948 5949 5950 5950 5950 5952 5953 5953 5955 5955 5955 5956
5889 5894 5895 5896 5900 5900 5903 5908 5910 5913 5917 5921 5921 5924 5926 5930 5932 5933 5935 5935 5938 5940 5942 5943 5944 5946 5947 5948 5949 5949 5948 5949 5950 5951 5952 5952 5954 5955 5956 5958 5958 5958 5959
5887 5891 5893 5896 5897 5899 5900 5907 5909 5911 5916 5920 5922 5924 5927 5929 5932 5933 5936 5936 5939 5940 5943 5945 5946 5946 5947 5948 5949 5950 5950 5951 5951 5952 5953 5954 5956 5957 5959 5960 5961 5962 5962
5883 5885 5888 5891 5895 5897 5901 5907 5908 5910 5915 5919 5922 5925 5926 5929 5931 5932 5936 5937 5938 5941 5944 5946 5948 5947 5948 5949 5950 5950 5951 5952 5953 5954 5955 5957 5958 5960 5961 5963 5964 5965 5966
5881 5885 5887 5891 5895 5899 5904 5905 5907 5910 5914 5918 5921 5924 5926 5928 5930 5932 5935 5937 5937 5941 5944 5946 5948 5948 5948 5950 5951 5951 5951 5953 5955 5956 5956 5958 5960 5961 5963 5965 5966 5966 5968
5879 5884 5887 5888 5891 5895 5901 5904 5904 5906 5912 5916 5919 5922 5925 5926 5928 5933 5934 5938 5938 5941 5943 5946 5947 5949 5950 5951 5951 5952 5953 5954 5956 5958 5959 5960 5961 5963 5964 5966 5967 5968 5968
5878 5882 5885 5887 5888 5893 5899 5900 5902 5904 5909 5913 5916 5921 5924 5926 5928 5930 5934 5937 5939 5941 5942 5946 5947 5949 5950 5951 5952 5954 5955 5956 5958 5959 5961 5963 5964 5965 5965 5966 5967 5968 5969
5872 5876 5881 5885 5887 5891 5896 5898 5901 5904 5906 5911 5915 5919 5922 5925 5928 5930 5932 5935 5938 5940 5942 5945 5946 5948 5950 5952 5953 5954 5955 5956 5957 5959 5961 5963 5964 5965 5967 5968 5969 5969 5970
5864 5869 5873 5876 5881 5886 5891 5893 5897 5901 5907 5911 5915 5917 5920 5923 5926 5929 5932 5935 5937 5939 5941 5943 5945 5947 5948 5950 5952 5954 5955 5957 5957 5958 5960 5962 5964 5966 5967 5969 5970 5971 5971
5860 5861 5865 5869 5875 5878 5882 5887 5890 5896 5900 5905 5910 5914 5916 5921 5924 5926 5929 5933 5935 5937 5939 5940 5943 5945 5947 5949 5951 5953 5954 5955 5957 5957 5959 5960 5962 5964 5966 5967 5969 5970 5971
5851 5852 5855 5859 5866 5871 5876 5881 5885 5888 5890 5896 5903 5907 5912 5916 5921 5924 5926 5929 5932 5935 5938 5939 5940 5942 5945 5947 5949 5951 5953 5955 5956 5957 5958 5959 5960 5962 5964 5965 5967 5968 5969
5842 5846 5848 5853 5858 5862 5869 5873 5878 5883 5887 5891 5896 5900 5905 5910 5915 5919 5922 5925 5928 5931 5934 5937 5938 5939 5942 5944 5946 5947 5950 5952 5954 5955 5956 5957 5957 5959 5960 5961 5963 5965 5965
5838 5841 5843 5847 5851 5855 5863 5868 5871 5876 5880 5886 5892 5894 5897 5902 5907 5911 5915 5919 5923 5926 5929 5932 5934 5937 5939 5941 5943 5944 5947 5949 5950 5952 5953 5953 5954 5955 5956 5958 5959 5961 5962
5829 5832 5837 5842 5845 5851 5855 5858 5864 5869 5875 5883 5886 5889 5892 5894 5900 5905 5908 5911 5916 5920 5924 5927 5931 5934 5936 5937 5938 5940 5942 5944 5947 5949 5950 5950 5951 5952 5953 5954 5955 5956 5958
5821 5823 5828 5833 5838 5842 5847 5849 5855 5860 5867 5874 5879 5881 5886 5890 5894 5898 5902 5905 5909 5913 5918 5922 5925 5928 5931 5933 5934 5936 5937 5940 5942 5945 5946 5947 5947 5948 5948 5949 5950 5952 5953
5809 5814 5818 5824 5829 5828 5837 5842 5849 5852 5858 5865 5869 5875 5879 5883 5887 5891 5895 5900 5901 5905 5910 5915 5918 5922 5925 5927 5929 5931 5932 5935 5937 5939 5941 5942 5942 5942 5943 5944 5945 5946 5947
5798 5803 5809 5814 5820 5825 5831 5836 5841 5847 5855 5858 5861 5866 5870 5874 5879 5884 5888 5893 5896 5898 5902 5906 5910 5915 5919 5921 5922 5924 5927 5929 5931 5933 5935 5936 5937 5938 5938 5940 5941 5942 5943
5784 5790 5798 5806 5812 5817 5823 5828 5833 5838 5843 5849 5855 5861 5864 5867 5872 5875 5877 5883 5889 5891 5893 5897 5902 5906 5910 5912 5915 5917 5920 5923 5926 5928 5929 5930 5932 5932 5933 5935 5936 5937 5936
5770 5776 5783 5792 5799 5804 5813 5818 5825 5828 5833 5842 5849 5854 5858 5863 5865 5868 5869 5872 5878 5883 5886 5888 5893 5897 5902 5905 5908 5910 5914 5918 5919 5921 5923 5924 5925 5925 5926 5929 5930 5931 5928
5753 5759 5767 5778 5785 5791 5801 5807 5816 5822 5828 5835 5841 5845 5849 5854 5857 5861 5861 5864 5868 5872 5877 5883 5884 5890 5894 5897 5900 5903 5906 5908 5911 5914 5914 5915 5915 5916 5918 5920 5923 5924 5922
5735 5744 5752 5760 5768 5777 5785 5794 5803 5810 5816 5825 5829 5835 5840 5844 5849 5853 5854 5855 5860 5862 5867 5875 5881 5884 5886 5889 5891 5893 5896 5896 5900 5904 5905 5905 5906 5907 5910 5912 5913 5914 5915
5717 5726 5733 5744 5751 5758 5767 5778 5788 5796 5803 5814 5820 5824 5829 5832 5837 5840 5846 5848 5852 5857 5861 5867 5872 5875 5877 5880 5881 5883 5884 5886 5889 5893 5893 5894 5895 5898 5901 5903 5904 5906 5906
5695 5705 5715 5725 5734 5745 5750 5760 5772 5778 5789 5800 5809 5813 5817 5819 5824 5830 5835 5842 5846 5850 5853 5858 5860 5864 5869 5871 5869 5870 5872 5874 5878 5879 5881 5885 5889 5889 5891 5892 5893 5895 5897
5671 5684 5697 5709 5717 5726 5736 5748 5757 5764 5773 5785 5795 5801 5803 5807 5810 5816 5825 5833 5837 5842 5845 5848 5851 5855 5859 5861 5861 5861 5864 5864 5864 5868 5875 5879 5880 5881 5881 5882 5883 5884 5886